Regional Weather Roundup
Issued by NWS

Home | Current Version | Previous Version | Text Only | Print | Product List | Glossary On
Versions: 1 2 3 4 5 6 7 8 9 10 11 12 13 14 15 16 17 18 19 20 21 22 23 24 25 26 27 28 29 30 31 32 33 34 35 36 37 38 39 40 41 42 43 44 45 46 47 48 49 50
000
ASUS44 KEWX 031603
RWRTX
SOUTH TEXAS REGIONAL WEATHER ROUNDUP
NATIONAL WEATHER SERVICE AUSTIN/SAN ANTONIO TX
1100 AM CDT THU SEP 03 2015

NOTE: "FAIR" INDICATED FEW OR NO CLOUDS BELOW 12,000 FEET WITH NO
SIGNIFICANT WEATHER AND/OR OBSTRUCTIONS TO VISIBILITY.

* - THESE STATIONS ARE NOT NWS OR FAA STATIONS...AND ARE NOT SUBJECT
    TO NWS AND FAA QUALITY CONTROL.

TXZ171-172-183>190-031700-
TEXAS HILL COUNTRY AND EDWARDS PLATEAU

CITY           SKY/WX    TMP DP  RH WIND       PRES   REMARKS
JUNCTION       SUNNY     83  66  56 SW7       30.02R
*LLANO         MOSUNNY   82  68  61 S6        30.04R
BURNET         MOSUNNY   82  67  60 SE5       30.03S
*HORSESHOE BAY SUNNY     85  67  55 SE5       30.00S
*KERRVILLE     MOSUNNY   82  70  68 S8        30.03R
*FREDERICKSBRG MOSUNNY   80  66  61 S3        30.02S
*ROCKSPRINGS   SUNNY     81  70  69 S7        30.07R
*BOERNE STAGE  SUNNY     79  66  65 CALM      30.02S
*CASTROVILLE   SUNNY     87  66  49 CALM      29.99S
HONDO          SUNNY     82  69  64 CALM      30.00S
*UVALDE        CLOUDY    79  72  78 CALM      30.00R
DEL RIO        SUNNY     85  72  65 SE8       29.96S HX  91
LAUGHLIN AFB   MOSUNNY   85  72  64 SE7       29.97S HX  91
CARRIZO SPRGS  SUNNY     86  70  58 CALM      29.94S HX  90
*EAGLE PASS    MOSUNNY   86  72  62 CALM      29.97S HX  92
$$

TXZ173-191>194-202-209-217>225-228-031700-
CENTRAL AND SOUTH CENTRAL TEXAS

CITY           SKY/WX    TMP DP  RH WIND       PRES   REMARKS
GEORGETOWN     PTSUNNY   82  70  65 VRB5      30.00S
AUSTIN/BERGSTM PTSUNNY   84  70  62 VRB3      29.97S
AUSTIN/MABRY   MOSUNNY   84  70  62 VRB3      29.99S
*AUSTIN/EXEC   PTSUNNY   82  72  69 CALM      29.99S
*LAGO VISTA    PTSUNNY   84  67  55 SE5       30.01S
SAN MARCOS     PTSUNNY   81  70  69 MISG      29.99S
NEW BRAUNFELS  PTSUNNY   84  70  62 VRB5      29.97S
RANDOLPH AFB   PTSUNNY   82  70  68 N5        29.98R
PT SAN ANTONIO PTSUNNY   86  71  60 S5        29.96S HX  91
SAN ANTONIO    PTSUNNY   82  71  69 CALM      29.98S
STINSON FIELD  MOSUNNY   84  71  65 CALM      29.95S
*PLEASANTON    PTSUNNY   87  70  56 NE5       29.96S HX  91
*LA GRANGE     SUNNY     84  74  71 SE5       29.95S HX  91
*GIDDINGS      PTSUNNY   83  71  67 E3        30.02R
*GONZALES      MOSUNNY   83  73  71 E5        29.96S
$$

TXZ163>164-176>182-195>201-210>213-226-227-235-031700-
SOUTHEAST TEXAS

CITY           SKY/WX    TMP DP  RH WIND       PRES   REMARKS
COLLEGE STN    MOSUNNY   84  71  65 VRB5      29.98S
*BRYAN         MOSUNNY   81  73  76 SE3       30.00S
*CALDWELL      PTSUNNY   79  79 100 NE5       30.02R
*CROCKETT      PTSUNNY   81  72  74 SE7       30.03S
*BRENHAM       MOSUNNY   81  76  84 E3        29.98S
HUNTSVILLE     MOSUNNY   83  73  72 VRB3      30.00S
CONROE         PTSUNNY   82  72  71 E6        29.99S
HOUSTON BUSH   PTSUNNY   83  75  77 VRB7      29.98R HX  90
HOUSTON HOBBY  PTSUNNY   83  74  74 E5        29.97R
*HOUSTON SW AP PTSUNNY   84  74  72 E3        29.97R HX  92
PEARLAND       SUNNY     86  73  65 VRB3      29.98S HX  93
HOUSTON HOOKS  MOSUNNY   84  75  74 E7        29.98S HX  92
ELLINGTON FLD  NOT AVBL
SUGAR LAND     PTSUNNY   81  75  82 S3        29.97R
*HOUSTON EXEC  MOSUNNY   81  75  83 NW3       29.99R
*CLEVELAND MUN CLOUDY    77  77  99 CALM      30.00S
*WHARTON       MOSUNNY   81  73  76 SE3       29.98R
*COLUMBUS      PTSUNNY   80  74  82 E3        29.97R
*EAGLE LAKE    PTSUNNY   82  74  77 E3        29.97R
$$

TXZ214>216-236>238-031700-
THE UPPER TEXAS COAST

CITY           SKY/WX    TMP DP  RH WIND       PRES   REMARKS
*ORANGE        MOSUNNY   82  81  98 CALM      30.00R HX  94
PORT ARTHUR    SUNNY     85  75  72 E6        29.97S HX  93
GALVESTON      CLOUDY    84  75  74 N5        29.98R HX  92
ANGLETON       SUNNY     85  76  74 N3        29.97R HX  94
*BAY CITY      CLOUDY    83  76  78 CALM      29.96R HX  91
PALACIOS       MOSUNNY   80  75  84 E6        29.95S
$$

TXZ229>234-239>247-031700-
TEXAS COASTAL BEND AND RIO GRANDE PLAINS

CITY           SKY/WX    TMP DP  RH WIND       PRES   REMARKS
VICTORIA       PTSUNNY   82  76  81 CALM      29.96S
*BEEVILLE      MOSUNNY   85  76  74 NE3       29.95S HX  95
ROCKPORT       SUNNY     84  75  74 E6        29.94R HX  92
*PORT ARANSAS  MOSUNNY   83  76  77 CALM      29.95R HX  92
*PORT LAVACA   MOSUNNY   83  75  78 NE3       29.95S HX  90
*INGLESIDE     MOSUNNY   85  76  76 NE6       29.94R HX  94
CORPUS CHRISTI PTSUNNY   85  73  67 W3        29.94S HX  91
CORPUS NAS     PTSUNNY   85  75  72 NE8       29.94R HX  93
*ROBSTOWN      PTSUNNY   84  77  78 CALM      29.94S HX  93
ALICE          SUNNY     86  74  67 VRB3      29.94R HX  94
KINGSVILLE NAS PTSUNNY   89  77  67 VRB3      29.94R HX 101
COTULLA        SUNNY     86  72  62 S5        29.95S HX  92
*FAITH RANCH     N/A     90  70  51 VRB6      29.95S HX  95
LAREDO         SUNNY     90  71  53 VRB5      29.95R HX  96
$$

TXZ248>255-031700-
DEEP SOUTH TEXAS

CITY           SKY/WX    TMP DP  RH WIND       PRES   REMARKS
BROWNSVILLE    LGT RAIN  84  78  82 S5        29.92R HX  95
PORT ISABEL    MOSUNNY   89  76  65 SE17G23   29.91S HX 100
*SOUTH PADRE   MOSUNNY   82  75  78 SW6       29.94R
HARLINGEN      MOSUNNY   89  77  67 S9        29.91S HX 101
*HEBBRONVILLE  NOT AVBL
MCALLEN        SUNNY     89  75  63 SE9       29.92S HX  99
*WESLACO       PTSUNNY   88  76  67 SE9       29.91S HX  98
FALFURRIAS     MOSUNNY   86  74  67 S5        29.93S HX  93
EDINBURG       MOSUNNY   88  74  64 S7        29.93R HX  96
*ZAPATA        SUNNY     89  71  53 E7        29.92S HX  95
$$

TXZ213>215-236>238-242>244-246-247-251-254-255-031700-
CMAN STATIONS

STATION/POSITION TIME  TEMP    WIND        PRES    WAVE
                       AIR SEA DIR/SP/G            HT/PER
                 (UTC) (F)     (DEG/KT/KT) (MB)    (FT/S)
SABINE PASS      1500           90/  8/ 10 1015.1
SEA RIM ST PARK  1500   81      80/  7/  8 1015.4
NORTH JETTY/GLS  1500           80/  6/  7   N/A
EAGLE POINT      1500           70/  7/  8 1014.8
MORGANS POINT    1500           70/ 10/ 12 1014.6
MISSION/ARANSAS  1500   78                 1014.0
PORT O`CONNOR    1500           70/  8/ 10   N/A
PORT ARANSAS     1500   80 84   10/  9/ 10 1014.2
MALAQUITE BEACH  1500          240/  3/  6 1013.4
BAFFIN BAY       1500          170/  3/  5 1013.6
PORT ISABEL      1500          150/  4/  5 1012.9
$$

GMZ080-GMZ150>470-031700-
OFFSHORE BUOY REPORTS

STATION/POSITION TIME  TEMP    WIND        PRES    WAVE
                       AIR SEA DIR/SP/G            HT/PER
                 (UTC) (F)     (DEG/KT/KT) (MB)    (FT/S)
20 E GALVESTON   1550   82 85   50/  6/  8 1015.0    2/ 5
90 E PT ARANSAS  1550   79 84  360/  6/  8 1014.5    3/ 6
35 NE PT MANSFLD 1450   83 85  210/  6/  8 1012.9    2/ 6
200 E PT ISABEL  1450   85 85  170/ 12/ 16 1014.1    3/ 6
$$


USA.gov is the U.S. government's official web portal to all federal, state and local government web resources and services.